WB4YDL Weather Reports


time (UTC)temp
C
wind
direction
speed
KPH
gust
KPH
rain 1hr
cm
rain 24hr
cm
rain mn
cm
humidity
%
barometer
mb
20260906022420 27 208 0.0 0.0 0.00 0.00 0.00 94 1006.4
20260906021915 27 209 0.0 1.6 0.00 0.00 0.00 94 1006.4
20260906021414 27 209 0.0 0.0 0.00 0.00 0.00 93 1006.3
20260906020909 27 209 0.0 0.0 0.00 0.00 0.00 93 1006.3
20260906020403 27 209 0.0 1.6 0.00 0.00 0.00 92 1006.1
20260906015858 27 231 0.0 0.0 0.00 0.00 0.00 91 1006.1
20260906015356 27 232 0.0 1.6 0.00 0.00 0.00 91 1006.2
20260906014851 27 197 0.0 0.0 0.00 0.00 0.00 90 1006.0
20260906014351 28 196 0.0 0.0 0.00 0.00 0.00 90 1006.1
20260906013847 28 197 0.0 1.6 0.00 0.00 0.00 91 1005.9
20260906013343 28 197 0.0 0.0 0.00 0.00 0.00 88 1005.7
20260906012838 28 197 0.0 0.0 0.00 0.00 0.00 88 1006.0
20260906012333 28 198 1.6 1.6 0.00 0.00 0.00 88 1005.8
20260906011833 28 197 0.0 0.0 0.00 0.00 0.00 88 1006.0
20260906011327 28 199 0.0 0.0 0.00 0.00 0.00 88 1005.9
20260906010823 28 171 0.0 0.0 0.00 0.00 0.00 87 1005.8
20260906010320 28 171 0.0 0.0 0.00 0.00 0.00 87 1005.8
20260906005814 28 171 0.0 0.0 0.00 0.00 0.00 83 1005.6
20260906005313 29 171 0.0 0.0 0.00 0.00 0.00 83 1005.8
20260906004812 30 171 0.0 0.0 0.00 0.00 0.00 84 1005.4
20260906004313 30 171 0.0 0.0 0.00 0.00 0.00 85 1005.6
20260906003808 30 171 0.0 0.0 0.00 0.00 0.00 80 1005.4
20260906003303 30 171 0.0 0.0 0.00 0.00 0.00 79 1005.5
20260906002759 30 171 0.0 0.0 0.00 0.00 0.00 79 1005.3
20260906002258 31 171 0.0 0.0 0.00 0.00 0.00 78 1005.8
20260906001754 31 171 0.0 0.0 0.00 0.00 0.00 80 1005.6
20260906001248 32 171 1.6 1.6 0.00 0.00 0.00 77 1005.5
20260906000743 32 170 1.6 1.6 0.00 0.00 0.00 74 1005.7
20260906000238 33 222 0.0 0.0 0.00 0.00 0.00 72 1005.8
20260905235733 33 222 0.0 1.6 0.00 0.00 0.00 73 1005.7
20260905235233 33 272 0.0 0.0 0.00 0.00 0.00 66 1005.8
20260905234729 34 281 0.0 0.0 0.00 0.00 0.00 60 1005.9
20260905234224 35 320 0.0 1.6 0.00 0.00 0.00 62 1005.8
20260905233719 35 321 0.0 1.6 0.00 0.00 0.00 55 1005.6
20260905233218 35 321 1.6 1.6 0.00 0.00 0.00 54 1005.8
20260905232713 36 321 1.6 1.6 0.00 0.00 0.00 52 1005.9
20260905232209 36 298 3.2 3.2 0.00 0.00 0.00 50 1006.0
20260905231705 36 290 3.2 3.2 0.00 0.00 0.00 51 1006.0
20260905231200 36 302 1.6 1.6 0.00 0.00 0.00 54 1005.9
20260905230656 36 302 1.6 1.6 0.00 0.00 0.00 51 1005.8
20260905230154 37 346 3.2 3.2 0.00 0.00 0.00 54 1005.7
20260905225653 37 350 1.6 1.6 0.00 0.00 0.00 50 1005.7
20260905225148 37 309 3.2 3.2 0.00 0.00 0.00 50 1005.7
20260905224648 37 324 3.2 3.2 0.00 0.00 0.00 51 1005.7
20260905224142 37 238 0.0 1.6 0.00 0.00 0.00 51 1005.5
20260905223639 37 276 3.2 3.2 0.00 0.00 0.00 49 1005.6
20260905223136 37 344 4.8 4.8 0.00 0.00 0.00 52 1005.7
20260905222631 37 295 3.2 3.2 0.00 0.00 0.00 50 1005.8
20260905222126 37 290 3.2 3.2 0.00 0.00 0.00 52 1005.7
20260905221621 37 260 1.6 3.2 0.00 0.00 0.00 48 1005.6
20260905221118 37 271 4.8 6.4 0.00 0.00 0.00 48 1005.6
20260905220613 37 290 3.2 3.2 0.00 0.00 0.00 49 1005.7
20260905220109 37 308 4.8 9.7 0.00 0.00 0.00 49 1005.8
20260905215609 37 280 3.2 4.8 0.00 0.00 0.00 48 1005.8
20260905215104 37 292 3.2 3.2 0.00 0.00 0.00 49 1005.9
20260905214600 37 271 1.6 1.6 0.00 0.00 0.00 50 1005.9
20260905214055 37 194 3.2 3.2 0.00 0.00 0.00 48 1005.8
20260905213550 38 284 4.8 4.8 0.00 0.00 0.00 51 1006.0
20260905213046 38 272 1.6 3.2 0.00 0.00 0.00 49 1005.7
20260905212545 38 255 3.2 3.2 0.00 0.00 0.00 46 1005.8
20260905212045 38 271 3.2 3.2 0.00 0.00 0.00 49 1005.9
20260905211540 38 355 4.8 4.8 0.00 0.00 0.00 48 1006.0
20260905211036 37 48 4.8 4.8 0.00 0.00 0.00 47 1006.1
20260905210531 38 326 3.2 3.2 0.00 0.00 0.00 47 1006.1
20260905210026 38 245 4.8 4.8 0.00 0.00 0.00 45 1006.2
20260905205525 38 336 3.2 4.8 0.00 0.00 0.00 51 1006.2
20260905205025 38 239 3.2 3.2 0.00 0.00 0.00 47 1006.1
20260905204520 37 251 1.6 1.6 0.00 0.00 0.00 47 1006.3
20260905204015 38 238 1.6 1.6 0.00 0.00 0.00 46 1006.1
20260905203510 38 33 0.0 1.6 0.00 0.00 0.00 47 1006.2
20260905203005 38 302 3.2 4.8 0.00 0.00 0.00 47 1006.2
20260905202500 38 207 1.6 1.6 0.00 0.00 0.00 49 1006.6
20260905201955 37 193 4.8 4.8 0.00 0.00 0.00 49 1006.4
20260905201451 37 205 1.6 1.6 0.00 0.00 0.00 48 1006.6
20260905200950 37 179 1.6 1.6 0.00 0.00 0.00 49 1006.7
20260905200446 37 128 1.6 1.6 0.00 0.00 0.00 48 1006.8
20260905195944 36 150 3.2 3.2 0.00 0.00 0.00 52 1006.7
20260905195440 37 168 3.2 4.8 0.00 0.00 0.00 49 1006.9
20260905194935 38 251 0.0 0.0 0.00 0.00 0.00 45 1007.0
20260905194435 38 166 3.2 4.8 0.00 0.00 0.00 46 1007.2
20260905193935 38 189 1.6 1.6 0.00 0.00 0.00 45 1007.3
20260905193430 37 280 1.6 1.6 0.00 0.00 0.00 46 1007.6
20260905192930 37 36 3.2 3.2 0.00 0.00 0.00 49 1007.4
20260905192425 38 204 1.6 1.6 0.00 0.00 0.00 46 1007.5
20260905191921 37 56 1.6 1.6 0.00 0.00 0.00 51 1007.6
20260905191419 37 249 3.2 3.2 0.00 0.00 0.00 48 1007.8
20260905190914 37 295 3.2 4.8 0.00 0.00 0.00 50 1007.8
20260905190412 36 106 6.4 6.4 0.00 0.00 0.00 49 1008.0
20260905185910 37 126 6.4 6.4 0.00 0.00 0.00 49 1008.1
20260905185406 37 79 0.0 1.6 0.00 0.00 0.00 49 1008.0
20260905184904 37 320 8.0 9.7 0.00 0.00 0.00 49 1008.1
20260905184359 37 310 1.6 1.6 0.00 0.00 0.00 49 1008.1
20260905183857 37 110 8.0 9.7 0.00 0.00 0.00 45 1008.3
20260905183353 37 30 3.2 3.2 0.00 0.00 0.00 50 1008.2
20260905182847 37 51 6.4 6.4 0.00 0.00 0.00 50 1008.2
20260905182342 36 280 1.6 3.2 0.00 0.00 0.00 50 1008.1
20260905181837 36 327 9.7 11.3 0.00 0.00 0.00 50 1008.2
20260905181337 37 302 6.4 6.4 0.00 0.00 0.00 50 1008.1
20260905180836 37 314 6.4 6.4 0.00 0.00 0.00 49 1008.3
20260905180331 36 244 3.2 3.2 0.00 0.00 0.00 53 1008.4
20260905175826 36 91 1.6 3.2 0.00 0.00 0.00 52 1008.3
20260905175320 36 82 1.6 3.2 0.00 0.00 0.00 54 1008.5
20260905174815 36 286 3.2 3.2 0.00 0.00 0.00 51 1008.7
20260905174311 36 349 3.2 3.2 0.00 0.00 0.00 57 1008.6
20260905173807 36 22 4.8 4.8 0.00 0.00 0.00 53 1008.5
20260905173303 36 296 1.6 3.2 0.00 0.00 0.00 56 1008.5
20260905172803 36 250 3.2 4.8 0.00 0.00 0.00 54 1008.5
20260905172301 36 290 4.8 4.8 0.00 0.00 0.00 55 1008.6
20260905171757 36 184 1.6 1.6 0.00 0.00 0.00 55 1008.7
20260905171253 36 248 1.6 3.2 0.00 0.00 0.00 52 1008.8
20260905170749 35 201 1.6 3.2 0.00 0.00 0.00 52 1009.0
20260905170245 36 347 3.2 6.4 0.00 0.00 0.00 55 1008.9
20260905165744 36 314 0.0 0.0 0.00 0.00 0.00 54 1008.7
20260905165240 35 301 3.2 3.2 0.00 0.00 0.00 55 1008.9
20260905164740 36 357 8.0 9.7 0.00 0.00 0.00 56 1009.0
20260905164235 35 296 3.2 3.2 0.00 0.00 0.00 54 1009.2
20260905163730 36 322 6.4 6.4 0.00 0.00 0.00 61 1009.0
20260905163227 35 259 3.2 3.2 0.00 0.00 0.00 57 1009.2
20260905162722 36 303 6.4 9.7 0.00 0.00 0.00 56 1009.2
20260905162222 36 278 3.2 3.2 0.00 0.00 0.00 63 1009.2
20260905161717 36 271 3.2 4.8 0.00 0.00 0.00 58 1009.2
20260905161215 36 232 4.8 4.8 0.00 0.00 0.00 60 1009.2
20260905160713 36 310 4.8 4.8 0.00 0.00 0.00 58 1009.3
20260905160208 35 3 3.2 4.8 0.00 0.00 0.00 63 1009.6
20260905155708 35 299 3.2 4.8 0.00 0.00 0.00 62 1009.4
20260905155207 35 74 0.0 1.6 0.00 0.00 0.00 61 1009.4
20260905154656 35 115 1.6 1.6 0.00 0.00 0.00 63 1009.4
20260905154151 34 120 3.2 3.2 0.00 0.00 0.00 66 1009.5
20260905153647 35 152 0.0 1.6 0.00 0.00 0.00 64 1009.4
20260905153143 34 144 1.6 1.6 0.00 0.00 0.00 65 1009.6
20260905152637 35 209 1.6 1.6 0.00 0.00 0.00 65 1009.4
20260905152132 34 203 3.2 4.8 0.00 0.00 0.00 66 1009.7
20260905151627 34 198 1.6 1.6 0.00 0.00 0.00 65 1009.7
20260905151122 35 109 1.6 3.2 0.00 0.00 0.00 64 1009.4
20260905150618 34 347 1.6 1.6 0.00 0.00 0.00 66 1009.3
20260905150116 33 137 1.6 1.6 0.00 0.00 0.00 67 1009.5
20260905145615 33 308 3.2 3.2 0.00 0.00 0.00 67 1009.5
20260905145114 33 272 3.2 3.2 0.00 0.00 0.00 67 1009.5
20260905144609 33 260 0.0 1.6 0.00 0.00 0.00 68 1009.4
20260905144108 33 348 4.8 4.8 0.00 0.00 0.00 71 1009.5
20260905143602 32 18 3.2 3.2 0.00 0.00 0.00 70 1009.5
20260905143057 33 357 1.6 1.6 0.00 0.00 0.00 72 1009.4
20260905142555 32 329 1.6 3.2 0.00 0.00 0.00 71 1009.5
20260905142050 32 234 1.6 1.6 0.00 0.00 0.00 73 1009.5
20260905141545 31 267 1.6 1.6 0.00 0.00 0.00 74 1009.5
20260905141041 31 233 1.6 1.6 0.00 0.00 0.00 76 1009.3
20260905140536 31 255 3.2 3.2 0.00 0.00 0.00 75 1009.4
20260905140035 30 243 3.2 3.2 0.00 0.00 0.00 78 1009.4
20260905135531 30 254 3.2 3.2 0.00 0.00 0.00 78 1009.3
20260905135025 30 281 1.6 1.6 0.00 0.00 0.00 79 1009.3
20260905134520 30 245 3.2 4.8 0.00 0.00 0.00 79 1009.4
20260905134019 30 239 0.0 1.6 0.00 0.00 0.00 81 1009.3
20260905133514 30 247 1.6 1.6 0.00 0.00 0.00 82 1008.9
20260905133014 30 226 0.0 1.6 0.00 0.00 0.00 81 1009.3
20260905132508 30 225 0.0 0.0 0.00 0.00 0.00 82 1009.1
20260905132003 29 215 0.0 0.0 0.00 0.00 0.00 83 1009.2
20260905131459 28 214 0.0 0.0 0.00 0.00 0.00 84 1008.9
20260905130954 28 215 0.0 0.0 0.00 0.00 0.00 86 1009.1
20260905130453 28 215 0.0 0.0 0.00 0.00 0.00 91 1008.9
20260905125953 27 215 0.0 0.0 0.00 0.00 0.00 91 1009.0
20260905125447 28 214 0.0 0.0 0.00 0.00 0.00 91 1008.9
20260905124943 27 213 0.0 0.0 0.00 0.00 0.00 92 1009.2
20260905124440 27 214 0.0 0.0 0.00 0.00 0.00 95 1009.0
20260905123935 26 213 0.0 0.0 0.00 0.00 0.00 96 1008.8
20260905123431 25 213 0.0 0.0 0.00 0.00 0.00 99 1008.9
20260905122926 25 213 0.0 0.0 0.00 0.00 0.00 99 1008.8
20260905122426 24 213 0.0 0.0 0.00 0.00 0.00 99 1009.1
20260905121921 23 213 0.0 0.0 0.00 0.00 0.00 99 1008.9
20260905121417 23 266 0.0 0.0 0.00 0.00 0.00 99 1009.0
20260905120915 23 268 0.0 0.0 0.00 0.00 0.00 99 1008.8
20260905120410 23 268 0.0 0.0 0.00 0.00 0.00 99 1008.8
20260905115905 23 269 0.0 0.0 0.00 0.00 0.00 99 1008.9
20260905115404 23 207 0.0 0.0 0.00 0.00 0.00 99 1008.7
20260905114859 23 207 0.0 0.0 0.00 0.00 0.00 99 1008.7
20260905114358 23 206 0.0 0.0 0.00 0.00 0.00 99 1008.9
20260905113852 23 184 1.6 3.2 0.00 0.00 0.00 99 1008.7
20260905113348 23 182 0.0 0.0 0.00 0.00 0.00 99 1008.9
20260905112843 23 182 0.0 0.0 0.00 0.00 0.00 99 1008.6
20260905112337 23 182 0.0 0.0 0.00 0.00 0.00 99 1008.6
20260905111833 23 182 0.0 0.0 0.00 0.00 0.00 99 1008.4
20260905111327 23 182 0.0 0.0 0.00 0.00 0.00 99 1008.4
20260905110826 23 182 0.0 0.0 0.00 0.00 0.00 99 1008.3
20260905110320 23 182 0.0 1.6 0.00 0.00 0.00 99 1008.4
20260905105816 23 182 0.0 1.6 0.00 0.00 0.00 99 1008.7
20260905105315 23 182 0.0 0.0 0.00 0.00 0.00 99 1008.3
20260905104809 23 182 0.0 1.6 0.00 0.00 0.00 99 1008.3
20260905104306 23 182 0.0 0.0 0.00 0.00 0.00 99 1008.4
20260905103805 23 182 0.0 1.6 0.00 0.00 0.00 99 1008.2
20260905103301 23 183 0.0 0.0 0.00 0.00 0.00 99 1008.2
20260905102756 23 183 0.0 0.0 0.00 0.00 0.00 99 1008.3
20260905102253 23 183 0.0 0.0 0.00 0.00 0.00 99 1008.1
20260905101753 23 183 0.0 0.0 0.00 0.00 0.00 99 1008.4
20260905101251 23 183 0.0 0.0 0.00 0.00 0.00 99 1008.4
20260905100746 23 183 0.0 0.0 0.00 0.00 0.00 99 1008.5
20260905100242 23 183 0.0 0.0 0.00 0.00 0.00 99 1008.5
20260905095741 23 183 0.0 0.0 0.00 0.00 0.00 99 1008.4
20260905095241 23 183 0.0 0.0 0.00 0.00 0.00 99 1008.4
20260905094736 23 182 0.0 0.0 0.00 0.00 0.00 99 1008.3
20260905094232 23 182 0.0 0.0 0.00 0.00 0.00 99 1008.4
20260905093730 23 183 0.0 0.0 0.00 0.00 0.00 99 1008.2
20260905093227 23 182 0.0 0.0 0.00 0.00 0.00 99 1008.3
20260905092722 23 182 0.0 0.0 0.00 0.00 0.00 99 1008.3
20260905092217 23 182 0.0 0.0 0.00 0.00 0.00 99 1008.5
20260905091716 23 182 0.0 0.0 0.00 0.00 0.00 99 1008.3
20260905091211 23 182 0.0 0.0 0.00 0.00 0.00 99 1008.4
20260905090705 23 182 0.0 0.0 0.00 0.00 0.00 99 1008.3
20260905090202 23 180 1.6 1.6 0.00 0.00 0.00 99 1008.0
20260905085700 23 203 0.0 0.0 0.00 0.00 0.00 99 1008.4
20260905085155 23 221 0.0 1.6 0.00 0.00 0.00 99 1008.2
20260905084655 23 221 0.0 0.0 0.00 0.00 0.00 99 1008.3
20260905084150 23 221 0.0 0.0 0.00 0.00 0.00 99 1008.1
20260905083644 23 221 0.0 0.0 0.00 0.00 0.00 99 1008.2
20260905083141 23 221 0.0 0.0 0.00 0.00 0.00 99 1008.1
20260905082637 23 221 0.0 0.0 0.00 0.00 0.00 99 1008.4
20260905082131 23 221 0.0 0.0 0.00 0.00 0.00 99 1008.5
20260905081626 23 221 1.6 1.6 0.00 0.00 0.00 99 1008.2
20260905081126 23 222 0.0 0.0 0.00 0.00 0.00 99 1008.6
20260905080620 23 222 0.0 0.0 0.00 0.00 0.00 99 1008.5
20260905080115 23 222 0.0 0.0 0.00 0.00 0.00 99 1008.3
20260905075614 23 222 0.0 0.0 0.00 0.00 0.00 99 1008.4
20260905075108 23 222 0.0 0.0 0.00 0.00 0.00 99 1008.4
20260905074608 23 222 0.0 0.0 0.00 0.00 0.00 99 1008.2
20260905074103 24 213 0.0 1.6 0.00 0.00 0.00 99 1008.3
20260905073558 24 211 0.0 1.6 0.00 0.00 0.00 99 1008.6
20260905073054 23 211 0.0 0.0 0.00 0.00 0.00 99 1008.4
20260905072553 24 211 0.0 0.0 0.00 0.00 0.00 99 1008.4
20260905072048 24 211 1.6 1.6 0.00 0.00 0.00 99 1008.6
20260905071545 24 224 0.0 0.0 0.00 0.00 0.00 99 1008.6
20260905071041 24 224 0.0 0.0 0.00 0.00 0.00 99 1008.6
20260905070536 24 224 1.6 1.6 0.00 0.00 0.00 99 1008.4
20260905070032 24 225 0.0 0.0 0.00 0.00 0.00 99 1008.4
20260905065529 24 225 0.0 1.6 0.00 0.00 0.00 99 1008.4
20260905065024 24 224 0.0 0.0 0.00 0.00 0.00 99 1008.6
20260905064519 24 224 0.0 0.0 0.00 0.00 0.00 99 1008.5
20260905064015 24 224 0.0 1.6 0.00 0.00 0.00 99 1008.5
20260905063513 24 225 0.0 0.0 0.00 0.00 0.00 99 1008.5
20260905063010 24 225 0.0 0.0 0.00 0.00 0.00 99 1008.5
20260905062510 24 225 0.0 0.0 0.00 0.00 0.00 99 1008.6
20260905062005 24 225 0.0 0.0 0.00 0.00 0.00 99 1008.6
20260905061500 24 225 0.0 0.0 0.00 0.00 0.00 99 1008.7
20260905060959 24 226 1.6 1.6 0.00 0.00 0.00 99 1008.6
20260905060455 24 223 0.0 0.0 0.00 0.00 0.00 99 1008.6
20260905055955 25 224 0.0 0.0 0.00 0.00 0.00 99 1008.8
20260905055454 25 222 0.0 1.6 0.00 0.00 0.00 99 1008.5
20260905054949 25 207 0.0 0.0 0.00 0.00 0.00 99 1008.7
20260905054444 25 207 0.0 0.0 0.00 0.00 0.00 99 1008.7
20260905053939 25 207 0.0 1.6 0.00 0.00 0.00 99 1008.7
20260905053434 25 207 0.0 0.0 0.00 0.00 0.00 99 1008.9
20260905052930 25 207 0.0 0.0 0.00 0.00 0.00 99 1009.0
20260905052429 25 207 0.0 0.0 0.00 0.00 0.00 99 1008.7
20260905051929 25 207 0.0 0.0 0.00 0.00 0.00 99 1008.7
20260905051424 25 208 0.0 0.0 0.00 0.00 0.00 99 1008.8
20260905050922 25 208 1.6 1.6 0.00 0.00 0.00 99 1008.6
20260905050417 25 207 0.0 0.0 0.00 0.00 0.00 99 1008.8
20260905045913 25 207 0.0 0.0 0.00 0.00 0.00 99 1008.9
20260905045408 25 207 0.0 0.0 0.00 0.00 0.00 98 1009.1
20260905044903 25 207 0.0 0.0 0.00 0.00 0.00 98 1008.8
20260905044358 25 207 1.6 1.6 0.00 0.00 0.00 98 1008.7
20260905043856 25 207 0.0 0.0 0.00 0.00 0.00 98 1008.7
20260905043352 25 207 0.0 0.0 0.00 0.00 0.00 98 1008.9
20260905042847 25 207 0.0 1.6 0.00 0.00 0.00 98 1008.8
20260905042346 25 207 1.6 1.6 0.00 0.00 0.00 98 1009.1
20260905041835 25 207 0.0 0.0 0.00 0.00 0.00 97 1008.9
20260905041331 25 207 0.0 0.0 0.00 0.00 0.00 97 1008.9
20260905040826 25 207 0.0 0.0 0.00 0.00 0.00 98 1009.1
20260905040325 25 207 0.0 0.0 0.00 0.00 0.00 97 1009.1
20260905035825 25 207 0.0 0.0 0.00 0.00 0.00 97 1009.1
20260905035320 25 207 0.0 0.0 0.00 0.00 0.00 97 1009.0
20260905034817 25 207 0.0 1.6 0.00 0.00 0.00 97 1008.8
20260905034312 26 207 0.0 0.0 0.00 0.00 0.00 97 1008.9
20260905033810 26 204 1.6 1.6 0.00 0.00 0.00 97 1008.9
20260905033306 26 175 0.0 0.0 0.00 0.00 0.00 97 1009.0
20260905032806 26 175 0.0 0.0 0.00 0.00 0.00 96 1009.0
20260905032305 26 175 0.0 0.0 0.00 0.00 0.00 96 1008.9
20260905031756 26 176 0.0 0.0 0.00 0.00 0.00 96 1008.9
20260905031252 26 175 0.0 1.6 0.00 0.00 0.00 95 1008.9
20260905030747 26 176 0.0 0.0 0.00 0.00 0.00 95 1008.8
20260905030242 26 175 0.0 0.0 0.00 0.00 0.00 95 1008.9
20260905025736 26 175 0.0 0.0 0.00 0.00 0.00 95 1009.0
20260905025232 26 175 0.0 0.0 0.00 0.00 0.00 95 1009.0
20260905024727 26 175 1.6 1.6 0.00 0.00 0.00 95 1009.0
20260905024224 26 175 0.0 1.6 0.00 0.00 0.00 95 1008.9
20260905023723 26 175 0.0 0.0 0.00 0.00 0.00 95 1008.9
20260905023218 26 175 0.0 0.0 0.00 0.00 0.00 95 1009.0